This is the latest recevied weather packets stored in our database for station/object KB4MOX. If no packets are shown the sender has not sent any weather packets the latest 10 day(s).
| Time | Temp. | Humidity | Pressure | Rain* | Wind** | Luminosity | Snow |
|---|---|---|---|---|---|---|---|
| 1777564961 | 21.67° C | 78% | 1011.2 hPa | 0 mm | - | 277 W/m² | - |
| 1777564656 | 21.67° C | 79% | 1011.1 hPa | 0 mm | - | 396 W/m² | - |
| 1777564351 | 21.11° C | 79% | 1011.1 hPa | 0 mm | - | 303 W/m² | - |
| 1777564047 | 21.11° C | 83% | 1011 hPa | 0 mm | - | 371 W/m² | - |
| 1777563744 | 21.11° C | 83% | 1011 hPa | 0 mm | - | 243 W/m² | - |
| 1777563441 | 20.56° C | 84% | 1011 hPa | 0 mm | - | 224 W/m² | - |
| 1777563139 | 20.56° C | 84% | 1010.9 hPa | 0 mm | - | 212 W/m² | - |
| 1777562836 | 20.56° C | 84% | 1011.1 hPa | 0 mm | - | 216 W/m² | - |
| 1777562534 | 21.11° C | 85% | 1011.1 hPa | 0 mm | - | 203 W/m² | - |
| 1777562231 | 20.56° C | 85% | 1011.1 hPa | 0 mm | - | 207 W/m² | - |
| 1777561929 | 21.11° C | 84% | 1010.8 hPa | 0 mm | - | 215 W/m² | - |
| 1777561625 | 20.56° C | 84% | 1010.8 hPa | 0 mm | - | 211 W/m² | - |
| 1777561321 | 20.56° C | 86% | 1010.7 hPa | 0 mm | - | 181 W/m² | - |
| 1777561022 | 20.56° C | 87% | 1010.7 hPa | 0 mm | - | 175 W/m² | - |
| 1777560717 | 20.56° C | 87% | 1010.7 hPa | 0 mm | - | 164 W/m² | - |
| 1777560414 | 20.56° C | 88% | 1010.7 hPa | 0 mm | - | 190 W/m² | - |
| 1777560113 | 20.56° C | 89% | 1010.6 hPa | 0 mm | - | 185 W/m² | - |
| 1777559809 | 20.56° C | 89% | 1010.7 hPa | 0 mm | - | 172 W/m² | - |
| 1777559505 | 20.56° C | 89% | 1010.4 hPa | 0 mm | - | 165 W/m² | - |
| 1777559203 | 20.56° C | 88% | 1010.3 hPa | 0 mm | - | 150 W/m² | - |
| 1777558902 | 20.56° C | 89% | 1010.3 hPa | 0 mm | - | 153 W/m² | - |
| 1777558599 | 20.56° C | 89% | 1010.2 hPa | 0 mm | - | 155 W/m² | - |
| 1777558294 | 20.56° C | 89% | 1009.8 hPa | 0 mm | - | 154 W/m² | - |
| 1777557991 | 20.56° C | 89% | 1009.7 hPa | 0 mm | - | 154 W/m² | - |
| 1777557688 | 20° C | 91% | 1009.3 hPa | 0 mm | - | 142 W/m² | - |
* Rain latest hour (hover to see other rain measurements)
** Current wind speed in m/s (hover to see current wind gust speed)